Location: Allen Fire Department Station 4
(33.1073°N, 96.6988°W)
Time: 11:01:41
(UTC+00:00)

SL-27 R/B - Pass Details

Date: 03 December 2021
Orbit: 416 x 464 km, 74.7° (Epoch: 24 January)

Event Time Altitude Azimuth Distance (km) Brightness Sun altitude
Rises 12:31:13 0° 354° (N) 2,498 5.9 -9.0°
Reaches altitude 10° 12:33:28 10° 4° (N) 1,615 5.0 -8.6°
Maximum altitude 12:36:44 34° 70° (ENE) 774 4.1 -8.0°
Drops below altitude 10° 12:39:58 10° 138° (SE) 1,587 6.4 -7.3°
Sets 12:42:08 0° 147° (SSE) 2,447 7.1 -6.9°
